Location: Berkeley
(37.8716°N, 122.2727°W)
Time: 07:43:15
(UTC-07:00)

ISS - Pass Details

Date: 19 May 2026
Orbit: 413 x 423 km, 51.6° (Epoch: 6 June)

Event Time Altitude Azimuth Distance (km) Brightness Sun altitude
Rises 21:55:55 0° 320° (NW) 2,350 1.8 -17.0°
Reaches altitude 10° 21:59:02 10° 352° (N) 1,488 -0.2 -17.4°
Maximum altitude 22:00:30 12° 18° (NNE) 1,353 -0.9 -17.6°
Drops below altitude 10° 22:01:59 10° 45° (NE) 1,489 -1.0 -17.8°
Enters shadow 22:02:43 - 55° (NE) 1,640 -0.9 -17.9°
